Wind_Speed
25 25 26 27 27 27 27 26 27 27 26 27 27 28 29 29 28 29 29 29 29 29 29 29 29 29 28 28 27 28 28 28 28 29 29 29 29 29
26 26 27 27 27 26 27 27 28 28 27 27 28 28 28 28 28 28 28 29 29 29 29 30 30 30 29 29 29 28 29 29 29 29 30 30 30 30
27 27 27 27 26 26 26 26 26 27 27 27 27 28 29 28 28 28 28 28 29 29 29 30 31 30 30 30 30 29 28 29 29 29 29 29 30 30
26 26 26 26 26 26 26 26 27 28 28 27 27 27 27 27 27 27 27 27 28 30 30 30 31 31 30 30 30 29 29 29 29 30 29 29 30 30
26 25 26 27 27 27 27 28 28 28 28 27 27 27 27 28 28 27 27 27 28 29 29 30 31 31 30 30 30 30 30 30 30 29 29 29 30 30
27 26 26 27 26 27 28 28 28 28 27 27 27 28 28 28 28 28 28 28 28 28 28 28 29 30 30 30 31 31 31 30 30 30 30 30 30 30
27 27 27 27 27 27 28 28 28 28 27 27 27 27 28 28 28 28 28 28 28 29 29 29 30 30 30 30 31 31 31 31 31 30 30 30 30 30
27 27 28 29 29 28 28 28 28 27 27 27 27 28 28 28 28 28 28 28 28 28 29 29 30 30 31 30 30 30 30 30 30 30 30 29 30 29
26 27 28 29 29 29 29 28 28 28 28 27 27 28 28 28 28 29 29 29 28 28 29 29 29 30 30 30 30 30 30 30 30 30 30 30 30 30
26 27 27 27 28 28 28 28 28 28 28 28 28 27 28 28 29 30 29 29 29 29 29 29 30 30 31 30 31 31 31 31 30 30 30 30 30 30
26 26 26 26 26 27 28 28 28 28 28 28 29 28 28 29 29 30 30 30 29 29 30 30 30 30 30 30 31 31 31 31 31 31 31 31 30 31
26 25 26 26 25 26 26 27 27 28 28 28 29 29 29 29 29 29 29 29 28 28 29 30 30 30 30 30 31 31 31 31 30 31 31 31 31 31
25 25 25 26 26 26 26 26 26 27 27 28 28 28 29 29 29 28 28 28 29 29 29 30 31 31 31 30 31 32 32 31 30 30 31 31 32 31
25 25 25 25 25 25 25 25 26 27 27 27 27 28 28 28 29 29 29 28 28 29 30 30 30 30 31 30 31 31 32 31 30 30 30 30 31 31
25 24 23 23 24 24 24 24 25 26 27 27 26 26 27 28 29 30 30 29 29 28 29 29 29 30 30 29 30 31 31 31 30 30 30 30 29 30
25 24 23 23 23 23 23 24 25 26 26 27 26 26 26 26 27 28 29 30 29 28 28 28 28 28 28 28 28 28 29 29 29 29 29 29 29 29
24 23 23 23 23 24 24 24 25 26 26 27 28 27 27 27 28 28 28 28 28 28 28 28 28 28 28 29 28 28 28 28 28 29 29 29 29 29
23 23 23 24 24 25 25 25 26 27 27 27 27 27 27 28 28 28 28 28 28 28 28 28 28 28 28 27 27 27 27 27 28 28 28 28 28 29
22 22 22 23 24 25 25 26 26 26 26 26 27 27 27 28 28 28 28 27 27 27 26 27 27 27 27 27 27 26 27 28 28 28 28 28 28 29
22 22 22 23 23 24 25 25 25 25 25 26 26 26 27 26 26 26 25 25 25 25 26 26 26 26 27 27 27 27 28 28 28 28 28 28 28 28
21 22 22 23 24 24 24 24 24 25 25 25 25 26 26 25 25 24 23 23 24 24 25 25 25 25 26 27 27 27 28 28 28 28 28 28 28 28
21 22 22 22 23 24 24 24 24 23 23 24 24 23 23 23 23 23 22 22 22 23 24 24 24 24 25 26 26 27 28 28 28 29 29 29 29 29
22 22 22 23 23 23 23 22 22 21 21 21 21 21 21 21 20 20 20 22 22 23 24 24 24 24 24 25 26 27 27 28 28 29 29 29 30 29
Wind_Direction
274 273 273 272 270 269 268 267 266 266 266 265 265 263 263 263 262 261 259 258 258 259 259 256 254 254 254 254 253 253 254 254 253 253 253 253 253 254
271 272 273 272 269 268 268 266 265 265 265 264 264 265 263 263 262 260 258 258 257 258 258 257 255 254 254 255 253 252 253 253 253 254 254 252 252 253
273 273 272 269 268 269 268 266 266 266 265 265 264 264 263 261 260 260 261 259 258 258 257 257 256 254 254 255 254 254 254 254 253 254 254 254 253 253
275 274 271 270 270 269 267 266 267 268 267 266 264 264 262 260 260 260 261 261 260 258 258 257 256 254 253 254 254 254 254 254 253 253 253 254 253 253
275 273 271 271 271 269 268 267 267 267 267 265 263 261 261 260 260 261 261 261 260 258 258 257 256 254 253 253 253 254 255 255 255 254 253 254 254 253
276 273 271 271 271 270 269 268 267 266 265 264 261 261 261 260 261 261 261 260 259 259 258 258 256 254 253 253 253 254 255 255 255 255 254 254 254 253
276 274 273 272 270 270 269 268 266 265 264 263 261 262 262 262 262 261 259 259 259 259 259 258 256 254 253 253 253 253 255 255 255 254 254 254 253 252
277 274 274 273 271 270 269 268 266 266 265 264 263 264 263 261 261 261 260 259 260 261 261 260 257 255 254 254 253 253 254 254 255 253 252 253 253 252
279 276 274 273 271 270 269 267 266 267 267 265 265 264 261 260 260 260 260 260 261 261 260 259 258 255 254 253 253 254 254 254 253 252 253 253 251 249
282 280 277 275 272 270 268 266 266 267 267 266 266 264 262 260 261 261 260 260 261 261 261 259 259 257 256 254 254 254 253 253 253 252 251 251 250 249
285 281 278 275 274 271 269 267 266 266 267 267 266 264 263 263 262 262 262 262 262 262 262 261 259 257 256 256 255 253 253 254 254 253 251 249 250 249
285 282 279 277 275 273 271 268 267 266 266 266 266 265 264 262 262 263 262 261 261 261 261 260 259 257 257 256 255 254 254 253 253 252 250 249 250 250
284 282 280 277 275 273 271 269 269 269 268 267 267 266 265 263 262 264 263 262 262 262 261 260 259 258 257 256 255 254 253 252 252 251 250 250 250 250
285 282 280 278 275 274 272 270 270 270 269 268 267 267 265 264 263 264 264 265 264 263 262 261 259 258 256 254 254 253 253 253 253 252 251 251 251 251
284 283 281 278 275 275 273 272 271 270 270 268 268 268 267 265 264 263 264 265 264 262 261 261 259 257 255 254 253 252 252 253 253 252 252 251 251 251
284 282 280 279 278 278 275 273 272 271 270 269 268 268 267 266 265 265 264 264 262 259 259 259 258 256 254 253 253 253 251 251 251 250 251 252 251 251
286 283 279 279 279 279 278 276 274 274 274 272 270 270 269 268 267 266 265 264 261 258 257 256 256 255 253 252 252 252 250 249 249 250 251 252 252 251
286 284 281 281 281 281 280 277 276 276 276 275 273 271 269 269 269 267 265 263 260 258 256 255 254 252 251 250 252 252 250 248 248 249 250 252 252 253
289 286 283 283 283 284 282 280 279 277 277 275 273 272 271 270 268 266 263 261 258 256 255 254 253 252 250 250 250 250 250 249 249 250 251 252 252 253
290 288 287 287 287 287 285 283 281 279 277 276 276 275 275 273 271 268 264 260 257 254 253 253 252 251 250 251 250 249 250 250 251 251 253 254 254 253
291 289 289 290 288 288 287 284 282 280 279 278 278 276 275 272 269 266 263 260 257 254 253 252 253 252 251 251 250 249 251 252 252 252 254 255 255 254
292 291 292 291 291 291 289 286 283 282 280 279 278 277 273 270 268 265 261 259 256 253 252 251 253 253 251 250 250 250 250 253 254 253 254 256 257 256
294 294 293 292 292 292 290 287 284 282 280 278 277 276 273 269 267 263 259 258 256 253 251 251 253 253 251 250 250 251 252 253 255 256 257 256 256 255
Height
5777 5777 5777 5777 5776 5776 5777 5777 5778 5778 5779 5779 5779 5779 5779 5779 5780 5780 5780 5781 5782 5783 5783 5784 5785 5787 5788 5789 5790 5791 5792 5793 5794 5795 5797 5798 5799 5800
5770 5769 5769 5769 5768 5768 5769 5769 5769 5770 5771 5771 5771 5771 5771 5771 5771 5771 5772 5772 5773 5774 5774 5775 5776 5778 5779 5780 5781 5782 5784 5785 5786 5787 5789 5790 5791 5792
5762 5761 5760 5760 5760 5760 5761 5761 5761 5761 5762 5763 5762 5762 5762 5762 5763 5763 5764 5764 5764 5765 5766 5766 5768 5769 5770 5772 5773 5774 5775 5776 5777 5779 5780 5781 5782 5783
5753 5753 5752 5752 5753 5752 5752 5753 5753 5753 5753 5754 5754 5753 5753 5754 5754 5755 5755 5756 5756 5756 5757 5758 5759 5760 5761 5763 5764 5765 5766 5767 5768 5770 5771 5773 5774 5774
5746 5745 5744 5744 5744 5744 5744 5744 5744 5744 5744 5745 5745 5745 5745 5746 5746 5747 5747 5747 5748 5748 5749 5749 5750 5751 5752 5754 5755 5756 5758 5759 5760 5760 5762 5763 5764 5766
5738 5737 5736 5735 5735 5735 5735 5735 5735 5735 5736 5736 5736 5737 5737 5737 5738 5738 5739 5739 5739 5740 5740 5741 5742 5742 5744 5745 5746 5748 5748 5749 5750 5751 5752 5754 5755 5756
5729 5728 5728 5727 5727 5726 5726 5726 5726 5726 5727 5727 5728 5728 5728 5729 5729 5730 5730 5730 5731 5731 5732 5732 5733 5734 5735 5736 5737 5738 5739 5740 5741 5742 5743 5745 5746 5747
5721 5720 5719 5719 5718 5717 5717 5717 5717 5718 5718 5719 5719 5720 5720 5720 5720 5721 5721 5722 5723 5723 5723 5723 5724 5725 5726 5727 5728 5729 5730 5731 5732 5733 5735 5736 5737 5739
5713 5712 5711 5710 5709 5708 5708 5708 5708 5708 5709 5710 5710 5711 5711 5711 5712 5712 5712 5712 5713 5713 5713 5714 5715 5716 5717 5718 5719 5720 5721 5723 5724 5725 5726 5727 5729 5731
5705 5704 5703 5701 5700 5700 5699 5699 5699 5700 5700 5701 5701 5701 5701 5701 5701 5702 5702 5703 5703 5703 5704 5705 5706 5706 5707 5708 5709 5711 5712 5713 5715 5716 5717 5719 5720 5722
5697 5695 5694 5693 5692 5691 5691 5691 5691 5691 5691 5691 5691 5691 5691 5692 5692 5692 5692 5693 5694 5695 5694 5695 5696 5697 5698 5699 5700 5701 5703 5704 5705 5707 5708 5710 5712 5714
5689 5687 5686 5685 5684 5683 5682 5682 5682 5682 5682 5682 5682 5682 5682 5682 5682 5683 5683 5684 5684 5685 5685 5685 5686 5686 5688 5690 5690 5691 5693 5695 5696 5698 5699 5701 5703 5705
5681 5679 5678 5676 5675 5674 5674 5674 5674 5673 5673 5673 5673 5672 5672 5673 5673 5673 5674 5674 5675 5676 5676 5675 5676 5677 5678 5680 5681 5682 5684 5686 5687 5689 5691 5693 5695 5697
5673 5671 5670 5668 5667 5666 5666 5665 5665 5664 5664 5664 5664 5663 5663 5664 5664 5664 5664 5664 5665 5665 5665 5666 5667 5668 5669 5671 5672 5674 5675 5677 5678 5680 5682 5685 5687 5689
5664 5663 5661 5660 5659 5658 5658 5657 5657 5656 5655 5655 5655 5655 5654 5654 5654 5654 5654 5654 5655 5655 5656 5656 5657 5658 5659 5661 5663 5665 5667 5668 5670 5672 5674 5676 5678 5681
5656 5655 5654 5653 5652 5651 5650 5649 5648 5648 5647 5647 5646 5645 5645 5645 5645 5645 5645 5645 5645 5646 5646 5647 5647 5648 5650 5652 5653 5655 5657 5660 5662 5664 5666 5668 5670 5672
5648 5647 5646 5645 5644 5643 5642 5641 5640 5639 5638 5637 5637 5636 5635 5635 5635 5635 5634 5634 5635 5636 5637 5638 5638 5639 5641 5643 5645 5647 5649 5651 5653 5655 5658 5660 5662 5664
5640 5639 5638 5637 5636 5635 5634 5633 5632 5631 5629 5628 5627 5626 5626 5626 5625 5624 5624 5624 5625 5627 5628 5629 5630 5631 5633 5635 5637 5638 5641 5643 5645 5647 5650 5652 5654 5656
5633 5632 5630 5629 5628 5627 5625 5624 5623 5621 5620 5619 5618 5617 5616 5616 5615 5615 5615 5615 5616 5617 5618 5620 5621 5623 5625 5627 5629 5631 5633 5635 5637 5639 5642 5644 5646 5648
5627 5625 5624 5622 5620 5619 5617 5615 5614 5612 5611 5610 5609 5608 5607 5607 5606 5606 5605 5606 5607 5608 5610 5611 5613 5614 5617 5619 5621 5623 5625 5627 5629 5631 5633 5635 5637 5639
5620 5618 5617 5615 5613 5611 5609 5607 5605 5604 5603 5602 5601 5600 5599 5598 5597 5597 5597 5598 5599 5600 5602 5604 5605 5606 5608 5610 5613 5615 5617 5618 5621 5623 5625 5627 5628 5630
5614 5612 5610 5608 5606 5604 5601 5599 5598 5597 5595 5594 5593 5592 5590 5590 5590 5590 5590 5591 5592 5593 5594 5596 5597 5598 5600 5602 5604 5607 5609 5610 5612 5614 5616 5618 5619 5621
5607 5605 5603 5601 5599 5596 5594 5592 5590 5589 5588 5586 5585 5584 5583 5582 5582 5583 5583 5584 5585 5586 5587 5588 5589 5591 5592 5594 5596 5598 5600 5602 5603 5605 5607 5608 5610 5611